EDT,Max TemperatureF,Mean TemperatureF,Min TemperatureF,Max Dew PointF,MeanDew PointF,Min DewpointF,Max Humidity, Mean Humidity, Min Humidity, Max Sea Level PressureIn, Mean Sea Level PressureIn, Min Sea Level PressureIn, Max VisibilityMiles, Mean VisibilityMiles, Min VisibilityMiles, Max Wind SpeedMPH, Mean Wind SpeedMPH, Max Gust SpeedMPH,PrecipitationIn, CloudCover, Events, WindDirDegrees
2014-4-1,82,66,50,55,48,37,100,71,21,30.21,30.16,30.13,15,11,10,7,1,,0.00,0,,72
2014-4-2,84,70,57,61,53,43,100,68,23,30.20,30.16,30.12,15,11,10,6,1,,0.00,0,,104
2014-4-3,84,70,57,61,57,52,100,72,33,30.17,30.11,30.05,15,10,10,10,5,,0.00,1,,155
2014-4-4,84,72,60,64,60,55,100,79,37,30.09,30.05,30.00,12,10,7,12,1,17,0.00,2,,240
2014-4-5,84,72,59,66,60,52,100,83,35,30.06,30.02,29.98,15,8,0,9,1,,0.00,2,Fog,311
2014-4-6,84,73,62,66,59,57,94,70,40,30.06,30.00,29.95,15,11,10,12,3,18,0.00,2,,206
2014-4-7,89,76,64,70,64,61,100,78,40,29.97,29.91,29.85,15,10,10,21,6,28,0.00,3,Rain,168
2014-4-8,75,68,62,73,66,54,100,87,72,29.90,29.82,29.75,12,9,2,16,10,21,0.00,6,Rain,221
2014-4-9,73,63,53,55,51,45,94,68,38,30.20,30.01,29.90,15,11,10,14,7,21,0.00,3,,297
2014-4-10,80,66,53,57,51,45,100,72,30,30.30,30.24,30.20,12,10,10,127,4,16,0.00,1,,110
2014-4-11,82,70,57,61,56,52,88,71,42,30.27,30.21,30.15,12,10,10,14,4,,0.00,2,,98
2014-4-12,84,74,64,64,59,52,94,70,33,30.21,30.16,30.11,15,10,10,14,7,17,0.00,4,,91
2014-4-13,84,73,62,64,60,55,94,73,40,30.15,30.10,30.03,20,11,7,16,6,23,0.00,4,Rain,76
2014-4-14,87,78,68,70,62,54,100,71,33,30.05,29.97,29.90,15,11,10,13,6,17,0.00,5,,127
2014-4-15,86,75,64,73,66,59,100,85,55,29.98,29.90,29.82,12,10,7,23,5,32,0.00,-765,,215
2014-4-16,77,64,51,57,52,45,88,72,44,30.16,30.06,29.97,15,11,10,20,11,24,0.00,5,,23
2014-4-17,78,69,60,64,59,55,88,79,61,30.21,30.15,30.11,12,10,10,21,9,25,0.00,6,,51
2014-4-18,80,73,66,70,66,63,100,87,58,30.15,30.04,29.93,12,10,7,15,9,21,0.00,6,Rain,99
2014-4-19,75,68,60,68,62,55,100,87,60,30.01,29.94,29.89,15,10,5,14,5,22,0.00,5,Rain,252
2014-4-20,71,66,60,61,58,54,100,85,60,30.09,30.03,29.98,20,10,2,15,6,17,0.00,8,,346
2014-4-21,69,64,59,59,56,54,100,78,64,30.10,30.05,29.99,12,10,7,10,7,,0.00,6,,8
2014-4-22,78,66,53,61,57,54,100,83,47,30.01,29.95,29.87,12,8,3,13,2,,0.00,2,,294
2014-4-23,82,70,59,63,59,57,100,81,42,29.98,29.93,29.88,15,10,5,9,2,,0.00,1,,283
2014-4-24,86,73,60,66,62,57,100,80,37,30.05,29.98,29.94,10,8,2,9,1,,0.00,3,,252
2014-4-25,84,72,60,68,62,55,100,80,37,30.05,29.99,29.96,10,8,2,15,2,23,0.00,2,,295
2014-4-26,87,74,60,68,62,57,100,81,35,30.04,30.00,29.96,15,8,0,12,1,17,0.00,3,Fog,2
2014-4-27,89,78,68,70,64,57,100,71,33,30.03,29.99,29.93,15,10,7,14,2,23,0.00,2,,184
2014-4-28,91,80,68,68,64,57,94,71,31,30.00,29.95,29.89,15,11,7,14,4,22,0.00,2,,175
2014-4-29,89,80,71,73,68,63,94,80,43,30.02,29.94,29.88,12,10,10,22,5,38,0.00,3,Rain-Thunderstorm,146
2014-4-30,89,79,69,73,68,63,100,83,46,30.08,30.01,29.97,12,10,7,20,10,25,0.00,3,Thunderstorm,138